STARLINK-33659, 63445

Orbit data source: Space-Track

STARLINK-33659, 63445 is a payload satellite owned by SpaceX/Seattle (US) in LEO that was launched on Fri, 04 Apr 2025 UTC via an FALCON 9 launch vehicle from the Air Force Western Test Range (AFWTR). Payload-class satellites include a variety of spacecraft equipped with specific instruments for various scientific and technological missions. These include communications satellites like Starlink; space stations such as the ISS; scientific satellites like the Hubble; Earth observation satellites from companies like Planet Labs, Umbra, and HawkEye 360; GPS; miniature CubeSats for education and research; and military/defense satellites.

Loading next visibility...
Identifier
63445, 2025-069N
Orbit
LEO
Country
Flag of USUS
Related business
Manufacturer
SpaceX/Seattle
Mission
Operational Commercial Communications
Bus & Motor
STARLINK V2MO, Unknown motor
Mass
575 kg wet, ~530 kg dry
Launch date (UTC)
2025-04-04 (1 year ago)
Launch vehicle
FALCON 9
Launch site
Air Force Western Test Range (AFWTR)
Object type
Payload
Rocket body
Debris
Shape & HBR
Box + 2 Pan, 17.7 m
Radar Cross Section
36.964 m², Large (>1 m²)

Expand to show TLE details & history
Last TLE update: 12 hours ago

TLE from 12 hours ago
0 STARLINK-33659
1 63445U 25069N   26145.28284207  .00032045  00000-0  74207-3 0  9992
2 63445  53.1577 144.4242 0000968  83.5934 276.5182 15.42187543 65112
Epoch: 2026-05-25T06:47Z
TLE epoch observation values (Epoch: 2026-05-25T06:47:17.554Z)
Latitude
-0.00005°
Longitude
159.72816°
Altitude
440.484 km
Speed
7.649 km/s
True Right ascension
09h 37m 41s
True Declination
0° 00' 00"
Sunlit
Object was in daylight at epoch
Visualization orbit readout
Latitude
Unknown
Longitude
Unknown
Altitude
Unknown
Speed
Unknown
Apparent Right ascension
Unknown
Apparent Declination
Unknown
Sunlit
N/A
Visualization observer readout
Local Sidereal Time
03:50:30
Azimuth
Unknown
Elevation
Unknown
Doppler factor
Unknown
Orbital elements
Apogee altitude
440.573 km
Perigee altitude
439.253 km
Semi-major axis
6,818.05 km
Eccentricity
0.0001
Inclination
53.1577°
RAAN
144.4242°
Arg. of periapsis
83.5934°
True anomaly
276.50718°
Mean anomaly
276.5182°
Eccentric anomaly
276.51269°
Mean motion
3.85525 °/min
Orbital period
93.38 mins
BSTAR
0.00074207
Loading maneuver chart data...
Computing Atmospheric mass density...
Loading historical data...
Loading historical data...
Loading historical data...
Loading historical data...
Loading historical data...
Loading historical data...
Loading historical data...

Documentation

Showing up to 5 results
|